DFALE EDKS-LIMG

Flight info

Callsign DFALE
Flight time N/A
Altitude 12000
Route HEFME Z841 BIGSU L603 TESGA/N0177F080 DCT NATOR/N0177F070 N850 TITIX DCT AKASU DCT EGHIN
Aircraft VELO/L-BDFGLORY/S

Departure

Time N/A
Airport EDKS

Arrival

Time 2026-04-13 18:21
Airport Riviera Villanova d'Albenga International Airport (LIMG)
Time Latitude Longitude Altitude Speed Heading
2026-04-13 16:20 50.86615 8.25571 11920 ft 205 kts 146°
2026-04-13 16:20 50.85521 8.26867 11916 ft 205 kts 146°
2026-04-13 16:21 50.84363 8.28173 11910 ft 202 kts 153°
2026-04-13 16:21 50.83126 8.29213 11918 ft 201 kts 155°
2026-04-13 16:21 50.81883 8.30265 11915 ft 203 kts 154°
2026-04-13 16:21 50.80644 8.31328 11907 ft 203 kts 154°
2026-04-13 16:22 50.79402 8.32390 11917 ft 203 kts 154°
2026-04-13 16:22 50.78171 8.33438 11912 ft 198 kts 154°
2026-04-13 16:22 50.75776 8.35476 11911 ft 194 kts 154°
2026-04-13 16:23 50.74583 8.36490 11916 ft 195 kts 154°
2026-04-13 16:23 50.73392 8.37501 11917 ft 198 kts 154°
2026-04-13 16:23 50.72172 8.38537 11914 ft 200 kts 154°
2026-04-13 16:23 50.70924 8.39597 11916 ft 202 kts 154°
2026-04-13 16:24 50.69685 8.40648 11918 ft 203 kts 154°
2026-04-13 16:24 50.68459 8.41688 11917 ft 203 kts 154°
2026-04-13 16:24 50.67213 8.42743 11918 ft 204 kts 154°
2026-04-13 16:24 50.65964 8.43802 11920 ft 204 kts 154°
2026-04-13 16:25 50.64705 8.44867 11923 ft 207 kts 154°
2026-04-13 16:25 50.63433 8.45943 11931 ft 208 kts 154°
2026-04-13 16:25 50.62148 8.47028 11929 ft 211 kts 154°
2026-04-13 16:25 50.60850 8.48125 11930 ft 212 kts 154°
2026-04-13 16:26 50.59549 8.49224 11926 ft 212 kts 154°
2026-04-13 16:26 50.58252 8.50318 11931 ft 212 kts 154°
2026-04-13 16:26 50.56950 8.51415 11925 ft 212 kts 154°
2026-04-13 16:26 50.55661 8.52503 11924 ft 209 kts 154°
2026-04-13 16:27 50.54386 8.53577 11920 ft 207 kts 154°
2026-04-13 16:27 50.53118 8.54643 11924 ft 206 kts 154°
2026-04-13 16:27 50.51855 8.55706 11932 ft 205 kts 154°
2026-04-13 16:27 50.50598 8.56763 11926 ft 205 kts 154°
2026-04-13 16:28 50.49343 8.57816 11933 ft 204 kts 154°
2026-04-13 16:28 50.48090 8.58868 11932 ft 204 kts 154°
2026-04-13 16:28 50.46839 8.59918 11925 ft 204 kts 154°
2026-04-13 16:28 50.45584 8.60966 11931 ft 203 kts 155°
2026-04-13 16:29 50.44280 8.61640 11928 ft 200 kts 172°
2026-04-13 16:29 50.42899 8.61682 11930 ft 199 kts 186°
2026-04-13 16:29 50.41517 8.61475 11931 ft 200 kts 186°
2026-04-13 16:29 50.40132 8.61288 11935 ft 201 kts 185°
2026-04-13 16:30 50.38737 8.61101 11936 ft 202 kts 185°
2026-04-13 16:30 50.37333 8.60909 11928 ft 202 kts 186°
2026-04-13 16:30 50.35928 8.60718 11940 ft 204 kts 186°
2026-04-13 16:30 50.34507 8.60523 11938 ft 206 kts 185°
2026-04-13 16:31 50.33084 8.60329 11934 ft 205 kts 185°
2026-04-13 16:31 50.31663 8.60135 11932 ft 204 kts 185°
2026-04-13 16:31 50.30249 8.59943 11932 ft 204 kts 186°
2026-04-13 16:31 50.28839 8.59751 11932 ft 203 kts 185°
2026-04-13 16:32 50.27432 8.59559 11931 ft 203 kts 185°
2026-04-13 16:32 50.26028 8.59368 11932 ft 203 kts 185°
2026-04-13 16:32 50.24620 8.59177 11929 ft 203 kts 186°
2026-04-13 16:32 50.23217 8.58986 11928 ft 202 kts 185°
2026-04-13 16:33 50.21816 8.58796 11931 ft 202 kts 185°
2026-04-13 16:33 50.20415 8.58606 11931 ft 202 kts 185°
2026-04-13 16:33 50.19013 8.58415 11929 ft 202 kts 186°
2026-04-13 16:33 50.17612 8.58226 11921 ft 202 kts 185°
2026-04-13 16:34 50.16208 8.58035 11931 ft 202 kts 185°
2026-04-13 16:34 50.14991 8.57870 11932 ft 202 kts 185°
2026-04-13 16:34 50.13588 8.57681 11930 ft 203 kts 186°
2026-04-13 16:34 50.12187 8.57491 11933 ft 203 kts 186°
2026-04-13 16:35 50.10784 8.57302 11932 ft 203 kts 186°
2026-04-13 16:35 50.09451 8.57121 11932 ft 203 kts 185°
2026-04-13 16:35 50.07978 8.56923 11932 ft 203 kts 186°
2026-04-13 16:35 50.06573 8.56733 11932 ft 203 kts 186°
2026-04-13 16:36 50.05181 8.56545 11931 ft 203 kts 186°
2026-04-13 16:36 50.03760 8.56354 11929 ft 203 kts 186°
2026-04-13 16:36 50.02352 8.56164 11929 ft 203 kts 186°
2026-04-13 16:36 50.00945 8.55974 11931 ft 203 kts 186°
2026-04-13 16:37 49.99539 8.55785 11930 ft 203 kts 186°
2026-04-13 16:37 49.98135 8.55597 11930 ft 203 kts 186°
2026-04-13 16:37 49.96726 8.55407 11929 ft 203 kts 186°
2026-04-13 16:37 49.95317 8.55218 11931 ft 203 kts 186°
2026-04-13 16:38 49.93911 8.55030 11932 ft 203 kts 186°
2026-04-13 16:38 49.92505 8.54841 11932 ft 203 kts 186°
2026-04-13 16:38 49.91572 8.54716 11929 ft 203 kts 186°
2026-04-13 16:38 49.90168 8.54528 11929 ft 203 kts 186°
2026-04-13 16:39 49.88763 8.54339 11929 ft 202 kts 186°
2026-04-13 16:39 49.87365 8.54152 11930 ft 202 kts 186°
2026-04-13 16:39 49.85968 8.53965 11928 ft 201 kts 186°
2026-04-13 16:39 49.84572 8.53779 11931 ft 201 kts 186°
2026-04-13 16:40 49.83173 8.53592 11931 ft 204 kts 186°
2026-04-13 16:40 49.81739 8.53400 11930 ft 210 kts 186°
2026-04-13 16:40 49.80269 8.53204 11931 ft 214 kts 186°
2026-04-13 16:40 49.78774 8.53004 11940 ft 217 kts 186°
2026-04-13 16:41 49.77262 8.52803 11943 ft 219 kts 186°
2026-04-13 16:41 49.75740 8.52600 11946 ft 220 kts 186°
2026-04-13 16:41 49.74215 8.52397 11944 ft 220 kts 186°
2026-04-13 16:41 49.72687 8.52194 11947 ft 220 kts 186°
2026-04-13 16:42 49.71160 8.51991 11945 ft 220 kts 186°
2026-04-13 16:42 49.69630 8.51788 11947 ft 220 kts 186°
2026-04-13 16:42 49.68104 8.51585 11944 ft 220 kts 186°
2026-04-13 16:42 49.66578 8.51383 11945 ft 220 kts 186°
2026-04-13 16:43 49.65061 8.51181 11943 ft 220 kts 186°
2026-04-13 16:43 49.63537 8.50979 11944 ft 220 kts 186°
2026-04-13 16:43 49.62035 8.50780 11944 ft 219 kts 186°
2026-04-13 16:43 49.60519 8.50580 11946 ft 218 kts 186°
2026-04-13 16:44 49.59010 8.50380 11947 ft 217 kts 186°
2026-04-13 16:44 49.57502 8.50180 11947 ft 217 kts 186°
2026-04-13 16:44 49.55998 8.49982 11942 ft 216 kts 187°
2026-04-13 16:44 49.54502 8.49784 11939 ft 216 kts 187°
2026-04-13 16:45 49.53006 8.49587 11942 ft 216 kts 187°
2026-04-13 16:45 49.51510 8.49390 11940 ft 216 kts 187°
2026-04-13 16:45 49.50012 8.49192 11939 ft 216 kts 187°
2026-04-13 16:45 49.48515 8.48995 11939 ft 216 kts 187°
2026-04-13 16:46 49.47017 8.48798 11939 ft 216 kts 187°
2026-04-13 16:46 49.45520 8.48601 11938 ft 216 kts 187°
2026-04-13 16:46 49.44020 8.48403 11937 ft 217 kts 187°
2026-04-13 16:46 49.42515 8.48206 11936 ft 217 kts 187°
2026-04-13 16:47 49.41013 8.48008 11938 ft 217 kts 187°
2026-04-13 16:47 49.39508 8.47811 11937 ft 217 kts 187°
2026-04-13 16:47 49.38004 8.47614 11936 ft 217 kts 187°
2026-04-13 16:47 49.36520 8.47419 11935 ft 217 kts 187°
2026-04-13 16:48 49.35020 8.47223 11934 ft 216 kts 187°
2026-04-13 16:48 49.33524 8.47026 11934 ft 215 kts 187°
2026-04-13 16:48 49.32028 8.46831 11934 ft 216 kts 187°
2026-04-13 16:48 49.30531 8.46636 11935 ft 216 kts 187°
2026-04-13 16:49 49.29032 8.46439 11930 ft 216 kts 187°
2026-04-13 16:49 49.27534 8.46244 11932 ft 216 kts 187°
2026-04-13 16:49 49.26041 8.46049 11928 ft 215 kts 187°
2026-04-13 16:49 49.24552 8.45855 11925 ft 215 kts 187°
2026-04-13 16:50 49.23064 8.45661 11927 ft 214 kts 187°
2026-04-13 16:50 49.21581 8.45468 11927 ft 214 kts 187°
2026-04-13 16:50 49.20097 8.45274 11928 ft 213 kts 188°
2026-04-13 16:50 49.18622 8.45082 11926 ft 213 kts 188°
2026-04-13 16:51 49.17148 8.44891 11926 ft 212 kts 188°
2026-04-13 16:51 49.15678 8.44699 11927 ft 212 kts 188°
2026-04-13 16:51 49.14207 8.44508 11927 ft 212 kts 188°
2026-04-13 16:51 49.12737 8.44318 11927 ft 212 kts 188°
2026-04-13 16:52 49.11273 8.44128 11926 ft 211 kts 188°
2026-04-13 16:52 49.09812 8.43938 11923 ft 210 kts 188°
2026-04-13 16:52 49.08374 8.43752 11927 ft 210 kts 188°
2026-04-13 16:52 49.06921 8.43564 11929 ft 210 kts 188°
2026-04-13 16:53 49.05466 8.43375 11928 ft 210 kts 188°
2026-04-13 16:53 49.04018 8.43188 11928 ft 209 kts 188°
2026-04-13 16:53 49.02570 8.43001 11931 ft 208 kts 188°
2026-04-13 16:53 49.01128 8.42814 11931 ft 208 kts 188°
2026-04-13 16:54 48.99681 8.42627 11931 ft 209 kts 188°
2026-04-13 16:54 48.98234 8.42441 11929 ft 209 kts 188°
2026-04-13 16:54 48.96786 8.42254 11929 ft 209 kts 188°
2026-04-13 16:54 48.95338 8.42067 11926 ft 209 kts 188°
2026-04-13 16:55 48.93887 8.41880 11933 ft 210 kts 188°
2026-04-13 16:55 48.92433 8.41693 11931 ft 209 kts 188°
2026-04-13 16:55 48.90986 8.41507 11932 ft 209 kts 188°
2026-04-13 16:55 48.89535 8.41320 11931 ft 209 kts 188°
2026-04-13 16:56 48.88086 8.41134 11933 ft 209 kts 188°
2026-04-13 16:56 48.86636 8.40948 11933 ft 209 kts 188°
2026-04-13 16:56 48.85183 8.40761 11932 ft 210 kts 188°
2026-04-13 16:56 48.83732 8.40575 11936 ft 209 kts 188°
2026-04-13 16:57 48.82282 8.40389 11936 ft 209 kts 188°
2026-04-13 16:57 48.80826 8.40202 11941 ft 210 kts 188°
2026-04-13 16:57 48.79365 8.40018 11937 ft 210 kts 188°
2026-04-13 16:57 48.77909 8.39830 11940 ft 210 kts 188°
2026-04-13 16:58 48.76447 8.39640 11937 ft 211 kts 188°
2026-04-13 16:58 48.74989 8.39455 11940 ft 210 kts 188°
2026-04-13 16:58 48.73532 8.39270 11940 ft 210 kts 188°
2026-04-13 16:58 48.72123 8.39089 11937 ft 210 kts 188°
2026-04-13 16:59 48.70669 8.38904 11940 ft 208 kts 188°
2026-04-13 16:59 48.69224 8.38719 11940 ft 208 kts 188°
2026-04-13 16:59 48.67779 8.38534 11940 ft 208 kts 188°
2026-04-13 16:59 48.66332 8.38351 11932 ft 208 kts 188°
2026-04-13 17:00 48.64896 8.38169 11940 ft 207 kts 188°
2026-04-13 17:00 48.63460 8.37985 11941 ft 208 kts 188°
2026-04-13 17:00 48.62021 8.37802 11946 ft 207 kts 188°
2026-04-13 17:00 48.60582 8.37619 11946 ft 208 kts 188°
2026-04-13 17:01 48.59141 8.37436 11945 ft 207 kts 188°
2026-04-13 17:01 48.57709 8.37254 11945 ft 205 kts 188°
2026-04-13 17:01 48.56290 8.37075 11944 ft 205 kts 188°
2026-04-13 17:01 48.54869 8.36894 11960 ft 204 kts 188°
2026-04-13 17:02 48.53474 8.36717 11959 ft 204 kts 188°
2026-04-13 17:02 48.52050 8.36536 11952 ft 206 kts 188°
2026-04-13 17:02 48.50627 8.36358 11946 ft 205 kts 188°
2026-04-13 17:02 48.49207 8.36177 11949 ft 205 kts 188°
2026-04-13 17:03 48.47788 8.35997 11945 ft 205 kts 188°
2026-04-13 17:03 48.46370 8.35818 11950 ft 205 kts 188°
2026-04-13 17:03 48.44951 8.35637 11953 ft 205 kts 188°
2026-04-13 17:03 48.43526 8.35459 11952 ft 206 kts 188°
2026-04-13 17:04 48.42094 8.35278 11950 ft 207 kts 188°
2026-04-13 17:04 48.40661 8.35097 11951 ft 207 kts 188°
2026-04-13 17:04 48.39223 8.34916 11953 ft 208 kts 188°
2026-04-13 17:04 48.37779 8.34734 11956 ft 209 kts 187°
2026-04-13 17:05 48.36324 8.34551 11954 ft 210 kts 187°
2026-04-13 17:05 48.34868 8.34368 11953 ft 209 kts 187°
2026-04-13 17:05 48.33418 8.34186 11948 ft 209 kts 187°
2026-04-13 17:05 48.31973 8.34004 11955 ft 208 kts 187°
2026-04-13 17:06 48.30522 8.33821 11948 ft 209 kts 187°
2026-04-13 17:06 48.29071 8.33639 11951 ft 210 kts 187°
2026-04-13 17:06 48.27616 8.33456 11956 ft 209 kts 187°
2026-04-13 17:06 48.26163 8.33274 11950 ft 209 kts 187°
2026-04-13 17:07 48.24715 8.33093 11954 ft 209 kts 187°
2026-04-13 17:07 48.23265 8.32912 11953 ft 208 kts 187°
2026-04-13 17:07 48.21819 8.32732 11946 ft 208 kts 187°
2026-04-13 17:07 48.20371 8.32548 11944 ft 209 kts 187°
2026-04-13 17:08 48.18920 8.32367 11945 ft 210 kts 187°
2026-04-13 17:08 48.17465 8.32192 11946 ft 209 kts 186°
2026-04-13 17:08 48.16010 8.32358 11940 ft 211 kts 174°
2026-04-13 17:08 48.14563 8.32730 11938 ft 212 kts 174°
2026-04-13 17:09 48.13103 8.33078 11937 ft 213 kts 174°
2026-04-13 17:09 48.11642 8.33428 11935 ft 213 kts 174°
2026-04-13 17:09 48.10177 8.33784 11944 ft 213 kts 174°
2026-04-13 17:09 48.08708 8.34142 11939 ft 214 kts 174°
2026-04-13 17:10 48.07257 8.34494 11940 ft 214 kts 174°
2026-04-13 17:10 48.05766 8.34855 11938 ft 214 kts 174°
2026-04-13 17:10 48.04313 8.35207 11935 ft 214 kts 174°
2026-04-13 17:10 48.02841 8.35563 11935 ft 214 kts 174°
2026-04-13 17:11 48.01368 8.35920 11933 ft 215 kts 174°
2026-04-13 17:11 47.99894 8.36277 11934 ft 215 kts 174°
2026-04-13 17:11 47.98413 8.36634 11932 ft 215 kts 174°
2026-04-13 17:11 47.96935 8.36992 11933 ft 215 kts 174°
2026-04-13 17:12 47.95456 8.37349 11930 ft 215 kts 174°
2026-04-13 17:12 47.93979 8.37705 11927 ft 215 kts 174°
2026-04-13 17:12 47.92502 8.38062 11926 ft 215 kts 174°
2026-04-13 17:12 47.91021 8.38419 11924 ft 216 kts 174°
2026-04-13 17:13 47.89540 8.38775 11923 ft 216 kts 174°
2026-04-13 17:13 47.88059 8.39131 11926 ft 216 kts 174°
2026-04-13 17:13 47.86578 8.39488 11929 ft 215 kts 174°
2026-04-13 17:13 47.85101 8.39725 11927 ft 212 kts 180°
2026-04-13 17:14 47.83622 8.39792 11925 ft 212 kts 180°
2026-04-13 17:14 47.82145 8.39878 11924 ft 212 kts 180°
2026-04-13 17:14 47.80667 8.39969 11923 ft 213 kts 180°
2026-04-13 17:14 47.79180 8.40057 11925 ft 214 kts 180°
2026-04-13 17:15 47.77686 8.40143 11922 ft 215 kts 180°
2026-04-13 17:15 47.76190 8.40230 11928 ft 215 kts 180°
2026-04-13 17:15 47.74690 8.40317 11926 ft 216 kts 180°
2026-04-13 17:15 47.73189 8.40405 11929 ft 216 kts 180°
2026-04-13 17:16 47.71687 8.40492 11928 ft 216 kts 180°
2026-04-13 17:16 47.70185 8.40579 11928 ft 216 kts 180°
2026-04-13 17:16 47.68684 8.40667 11927 ft 216 kts 180°
2026-04-13 17:16 47.67181 8.40754 11929 ft 216 kts 180°
2026-04-13 17:17 47.65698 8.40840 11930 ft 216 kts 180°
2026-04-13 17:17 47.64195 8.40927 11927 ft 216 kts 180°
2026-04-13 17:17 47.62691 8.41014 11929 ft 216 kts 180°
2026-04-13 17:17 47.61187 8.41101 11931 ft 216 kts 180°
2026-04-13 17:18 47.59686 8.41188 11928 ft 216 kts 180°
2026-04-13 17:18 47.58181 8.41275 11929 ft 217 kts 180°
2026-04-13 17:18 47.56673 8.41362 11937 ft 217 kts 180°
2026-04-13 17:18 47.55170 8.41449 11940 ft 216 kts 180°
2026-04-13 17:19 47.53668 8.41537 11940 ft 216 kts 179°
2026-04-13 17:19 47.52170 8.41624 11938 ft 214 kts 179°
2026-04-13 17:19 47.50681 8.41709 11941 ft 215 kts 179°
2026-04-13 17:19 47.49177 8.41793 11940 ft 217 kts 180°
2026-04-13 17:20 47.47670 8.41881 11942 ft 216 kts 179°
2026-04-13 17:20 47.46164 8.41969 11943 ft 217 kts 179°
2026-04-13 17:20 47.44655 8.42055 11943 ft 217 kts 179°
2026-04-13 17:20 47.43149 8.42142 11942 ft 216 kts 179°
2026-04-13 17:21 47.41643 8.42229 11943 ft 217 kts 179°
2026-04-13 17:21 47.40137 8.42315 11941 ft 217 kts 179°
2026-04-13 17:21 47.38629 8.42401 11942 ft 217 kts 179°
2026-04-13 17:21 47.37121 8.42488 11942 ft 217 kts 179°
2026-04-13 17:22 47.35614 8.42574 11940 ft 217 kts 179°
2026-04-13 17:22 47.34109 8.42661 11942 ft 216 kts 179°
2026-04-13 17:22 47.32603 8.42747 11943 ft 216 kts 179°
2026-04-13 17:22 47.31095 8.42833 11942 ft 217 kts 179°
2026-04-13 17:23 47.29582 8.42920 11941 ft 218 kts 179°
2026-04-13 17:23 47.28070 8.43006 11939 ft 217 kts 179°
2026-04-13 17:23 47.26577 8.43092 11942 ft 218 kts 179°
2026-04-13 17:23 47.25063 8.43178 11938 ft 218 kts 179°
2026-04-13 17:24 47.23547 8.43264 11943 ft 218 kts 179°
2026-04-13 17:24 47.22034 8.43351 11943 ft 218 kts 179°
2026-04-13 17:24 47.20523 8.43437 11945 ft 218 kts 179°
2026-04-13 17:24 47.19009 8.43523 11945 ft 218 kts 179°
2026-04-13 17:25 47.17495 8.43610 11947 ft 218 kts 179°
2026-04-13 17:25 47.15975 8.43696 11945 ft 218 kts 179°
2026-04-13 17:25 47.14949 8.43755 11944 ft 219 kts 179°
2026-04-13 17:25 47.13431 8.43841 11948 ft 218 kts 179°
2026-04-13 17:26 47.11916 8.43927 11945 ft 218 kts 179°
2026-04-13 17:26 47.10398 8.44013 11945 ft 218 kts 179°
2026-04-13 17:26 47.08883 8.44099 11948 ft 218 kts 179°
2026-04-13 17:26 47.07382 8.44184 11947 ft 218 kts 179°
2026-04-13 17:27 47.04347 8.44356 11949 ft 218 kts 179°
2026-04-13 17:27 47.02821 8.44442 11943 ft 220 kts 179°
2026-04-13 17:27 47.01295 8.44530 11941 ft 219 kts 179°
2026-04-13 17:28 46.99774 8.44616 11942 ft 220 kts 179°
2026-04-13 17:28 46.98245 8.44701 11938 ft 219 kts 179°
2026-04-13 17:28 46.96724 8.44788 11938 ft 218 kts 179°
2026-04-13 17:28 46.95218 8.44873 11935 ft 216 kts 179°
2026-04-13 17:29 46.93715 8.44958 11932 ft 216 kts 179°
2026-04-13 17:29 46.92215 8.45042 11934 ft 216 kts 178°
2026-04-13 17:29 46.90712 8.45127 11933 ft 216 kts 178°
2026-04-13 17:29 46.89211 8.45212 11943 ft 217 kts 178°
2026-04-13 17:30 46.87700 8.45297 11919 ft 214 kts 179°
2026-04-13 17:30 46.86228 8.45377 11924 ft 213 kts 178°
2026-04-13 17:30 46.84745 8.45463 11938 ft 215 kts 178°
2026-04-13 17:30 46.83246 8.45548 11943 ft 216 kts 178°
2026-04-13 17:31 46.81747 8.45632 11938 ft 216 kts 179°
2026-04-13 17:31 46.80245 8.45715 11933 ft 217 kts 178°
2026-04-13 17:31 46.78738 8.45799 11927 ft 216 kts 178°
2026-04-13 17:31 46.77245 8.45885 11913 ft 212 kts 179°
2026-04-13 17:32 46.75767 8.45968 11922 ft 215 kts 178°
2026-04-13 17:32 46.74268 8.46051 11916 ft 215 kts 178°
2026-04-13 17:32 46.72768 8.46135 11914 ft 215 kts 178°
2026-04-13 17:32 46.71283 8.46218 11917 ft 212 kts 178°
2026-04-13 17:33 46.69812 8.46300 11912 ft 210 kts 178°
2026-04-13 17:33 46.68368 8.46381 11901 ft 211 kts 178°
2026-04-13 17:33 46.66902 8.46464 11913 ft 212 kts 178°
2026-04-13 17:33 46.65391 8.46548 11921 ft 219 kts 177°
2026-04-13 17:34 46.62353 8.46718 11908 ft 219 kts 177°
2026-04-13 17:34 46.60817 8.46802 11903 ft 222 kts 178°
2026-04-13 17:34 46.59268 8.46889 11905 ft 224 kts 178°
2026-04-13 17:35 46.57710 8.46977 11901 ft 224 kts 178°
2026-04-13 17:35 46.56154 8.47063 11896 ft 224 kts 178°
2026-04-13 17:35 46.54601 8.47149 11893 ft 222 kts 177°
2026-04-13 17:35 46.53052 8.47236 11887 ft 223 kts 177°
2026-04-13 17:36 46.51503 8.47319 11886 ft 223 kts 178°
2026-04-13 17:36 46.49944 8.47407 11890 ft 225 kts 177°
2026-04-13 17:36 46.48375 8.47496 11883 ft 226 kts 177°
2026-04-13 17:36 46.46812 8.47582 11881 ft 224 kts 177°
2026-04-13 17:37 46.45254 8.47668 11882 ft 224 kts 177°
2026-04-13 17:37 46.43695 8.47755 11877 ft 225 kts 177°
2026-04-13 17:37 46.42131 8.47841 11874 ft 224 kts 177°
2026-04-13 17:37 46.40576 8.47927 11883 ft 224 kts 177°
2026-04-13 17:38 46.39011 8.48013 11884 ft 226 kts 177°
2026-04-13 17:38 46.37444 8.48100 11882 ft 226 kts 176°
2026-04-13 17:38 46.35876 8.48187 11885 ft 225 kts 176°
2026-04-13 17:38 46.34314 8.48272 11874 ft 224 kts 176°
2026-04-13 17:39 46.32760 8.48359 11876 ft 223 kts 176°
2026-04-13 17:39 46.31206 8.48445 11876 ft 223 kts 176°
2026-04-13 17:39 46.29661 8.48530 11873 ft 222 kts 176°
2026-04-13 17:39 46.28136 8.48614 11873 ft 222 kts 176°
2026-04-13 17:40 46.26575 8.48700 11870 ft 221 kts 176°
2026-04-13 17:40 46.25068 8.48783 11862 ft 218 kts 177°
2026-04-13 17:40 46.23556 8.48866 11864 ft 218 kts 176°
2026-04-13 17:40 46.22036 8.48949 11862 ft 219 kts 176°
2026-04-13 17:41 46.20510 8.49034 11869 ft 220 kts 176°
2026-04-13 17:41 46.18979 8.49118 11873 ft 220 kts 176°
2026-04-13 17:41 46.17452 8.49201 11870 ft 220 kts 176°
2026-04-13 17:41 46.15923 8.49285 11871 ft 220 kts 176°
2026-04-13 17:42 46.14402 8.49368 11856 ft 219 kts 176°
2026-04-13 17:42 46.12883 8.49452 11872 ft 218 kts 176°
2026-04-13 17:42 46.11367 8.49535 11870 ft 217 kts 176°
2026-04-13 17:42 46.09867 8.49419 11868 ft 216 kts 184°
2026-04-13 17:43 46.08369 8.49194 11873 ft 217 kts 184°
2026-04-13 17:43 46.06869 8.48982 11870 ft 217 kts 183°
2026-04-13 17:43 46.05372 8.48782 11869 ft 216 kts 183°
2026-04-13 17:43 46.03885 8.48578 11871 ft 214 kts 183°
2026-04-13 17:44 46.02396 8.48371 11872 ft 215 kts 183°
2026-04-13 17:44 46.00908 8.48165 11872 ft 214 kts 183°
2026-04-13 17:44 45.99424 8.47960 11871 ft 213 kts 183°
2026-04-13 17:44 45.97968 8.47759 11869 ft 213 kts 183°
2026-04-13 17:45 45.96492 8.47556 11866 ft 212 kts 183°
2026-04-13 17:45 45.95027 8.47353 11867 ft 211 kts 183°
2026-04-13 17:45 45.93568 8.47153 11870 ft 210 kts 183°
2026-04-13 17:45 45.92114 8.46953 11865 ft 210 kts 183°
2026-04-13 17:46 45.90667 8.46754 11866 ft 207 kts 183°
2026-04-13 17:46 45.89232 8.46556 11860 ft 207 kts 183°
2026-04-13 17:46 45.87800 8.46359 11862 ft 207 kts 182°
2026-04-13 17:46 45.86366 8.46162 11857 ft 207 kts 182°
2026-04-13 17:47 45.84935 8.45966 11857 ft 207 kts 182°
2026-04-13 17:47 45.83504 8.45770 11855 ft 206 kts 182°
2026-04-13 17:47 45.82077 8.45574 11853 ft 205 kts 182°
2026-04-13 17:47 45.80666 8.45377 11851 ft 203 kts 182°
2026-04-13 17:48 45.79263 8.45186 11847 ft 202 kts 182°
2026-04-13 17:48 45.77864 8.44998 11849 ft 201 kts 182°
2026-04-13 17:48 45.76476 8.44807 11844 ft 201 kts 182°
2026-04-13 17:48 45.75086 8.44617 11846 ft 200 kts 182°
2026-04-13 17:49 45.73699 8.44427 11847 ft 200 kts 182°
2026-04-13 17:49 45.72315 8.44238 11843 ft 200 kts 182°
2026-04-13 17:49 45.70932 8.44048 11845 ft 199 kts 182°
2026-04-13 17:49 45.69555 8.43860 11840 ft 199 kts 182°
2026-04-13 17:50 45.68182 8.43673 11840 ft 198 kts 182°
2026-04-13 17:50 45.66817 8.43487 11844 ft 197 kts 182°
2026-04-13 17:50 45.65458 8.43302 11840 ft 196 kts 182°
2026-04-13 17:50 45.64104 8.43117 11842 ft 195 kts 182°
2026-04-13 17:51 45.62768 8.42935 11839 ft 196 kts 182°
2026-04-13 17:51 45.61412 8.42751 11840 ft 196 kts 182°
2026-04-13 17:51 45.60048 8.42566 11839 ft 196 kts 183°
2026-04-13 17:51 45.58690 8.42380 11838 ft 196 kts 182°
2026-04-13 17:52 45.57332 8.42196 11837 ft 196 kts 182°
2026-04-13 17:52 45.55980 8.42012 11834 ft 195 kts 182°
2026-04-13 17:52 45.54635 8.41829 11838 ft 194 kts 182°
2026-04-13 17:52 45.53294 8.41647 11835 ft 193 kts 182°
2026-04-13 17:53 45.52393 8.41525 11837 ft 192 kts 182°
2026-04-13 17:53 45.50630 8.41286 11841 ft 192 kts 182°
2026-04-13 17:53 45.49299 8.41106 11836 ft 192 kts 182°
2026-04-13 17:53 45.47967 8.40925 11836 ft 192 kts 182°
2026-04-13 17:54 45.46636 8.40745 11837 ft 192 kts 182°
2026-04-13 17:54 45.45303 8.40565 11837 ft 192 kts 182°
2026-04-13 17:54 45.43974 8.40385 11836 ft 192 kts 182°
2026-04-13 17:54 45.42643 8.40204 11832 ft 192 kts 182°
2026-04-13 17:55 45.41311 8.40025 11834 ft 193 kts 182°
2026-04-13 17:55 45.39973 8.39844 11833 ft 194 kts 182°
2026-04-13 17:55 45.38632 8.39663 11837 ft 193 kts 182°
2026-04-13 17:55 45.37290 8.39481 11831 ft 194 kts 182°
2026-04-13 17:56 45.35945 8.39301 11833 ft 194 kts 182°
2026-04-13 17:56 45.34601 8.39119 11832 ft 194 kts 183°
2026-04-13 17:56 45.33256 8.38937 11831 ft 194 kts 182°
2026-04-13 17:56 45.31924 8.38758 11831 ft 195 kts 183°
2026-04-13 17:57 45.30568 8.38576 11829 ft 196 kts 183°
2026-04-13 17:57 45.29214 8.38393 11826 ft 197 kts 183°
2026-04-13 17:57 45.27851 8.38210 11832 ft 197 kts 183°
2026-04-13 17:57 45.26484 8.38026 11831 ft 198 kts 183°
2026-04-13 17:58 45.25102 8.37841 11826 ft 200 kts 183°
2026-04-13 17:58 45.23711 8.37654 11826 ft 202 kts 183°
2026-04-13 17:58 45.22308 8.37465 11826 ft 203 kts 183°
2026-04-13 17:58 45.20898 8.37276 11823 ft 205 kts 184°
2026-04-13 17:59 45.19475 8.37084 11823 ft 206 kts 184°
2026-04-13 17:59 45.18042 8.36892 11821 ft 207 kts 184°
2026-04-13 17:59 45.16605 8.36700 11818 ft 209 kts 183°
2026-04-13 17:59 45.15155 8.36507 11817 ft 210 kts 184°
2026-04-13 18:00 45.13700 8.36311 11820 ft 211 kts 184°
2026-04-13 18:00 45.12233 8.36114 11813 ft 212 kts 184°
2026-04-13 18:00 45.10756 8.35917 11814 ft 214 kts 184°
2026-04-13 18:00 45.09272 8.35719 11811 ft 215 kts 184°
2026-04-13 18:01 45.07780 8.35519 11809 ft 216 kts 184°
2026-04-13 18:01 45.06279 8.35319 11806 ft 217 kts 184°
2026-04-13 18:01 45.04771 8.35118 11807 ft 218 kts 184°
2026-04-13 18:01 45.03254 8.34915 11807 ft 220 kts 184°
2026-04-13 18:02 45.01731 8.34712 11807 ft 220 kts 184°
2026-04-13 18:02 45.00206 8.34509 11803 ft 220 kts 184°
2026-04-13 18:02 44.98677 8.34306 11798 ft 221 kts 184°
2026-04-13 18:02 44.97143 8.34102 11798 ft 222 kts 184°
2026-04-13 18:03 44.95603 8.33896 11800 ft 223 kts 184°
2026-04-13 18:03 44.94061 8.33692 11800 ft 223 kts 184°
2026-04-13 18:03 44.92514 8.33486 11804 ft 223 kts 184°
2026-04-13 18:03 44.90972 8.33280 11803 ft 223 kts 184°
2026-04-13 18:04 44.89423 8.33075 11803 ft 224 kts 184°
2026-04-13 18:04 44.87871 8.32870 11801 ft 224 kts 184°
2026-04-13 18:04 44.86312 8.32663 11804 ft 226 kts 185°
2026-04-13 18:04 44.84745 8.32455 11806 ft 226 kts 184°
2026-04-13 18:05 44.83174 8.32247 11800 ft 227 kts 184°
2026-04-13 18:05 44.81595 8.32038 11805 ft 228 kts 184°
2026-04-13 18:05 44.80014 8.31829 11803 ft 229 kts 184°
2026-04-13 18:05 44.78421 8.31618 11803 ft 230 kts 185°
2026-04-13 18:06 44.76822 8.31407 11806 ft 231 kts 185°
2026-04-13 18:06 44.75217 8.31194 11803 ft 232 kts 185°
2026-04-13 18:06 44.73604 8.30982 11805 ft 233 kts 185°
2026-04-13 18:06 44.72004 8.30771 11805 ft 235 kts 185°
2026-04-13 18:07 44.70372 8.30555 11807 ft 236 kts 185°
2026-04-13 18:07 44.68731 8.30339 11805 ft 238 kts 185°
2026-04-13 18:07 44.67080 8.30122 11808 ft 239 kts 185°
2026-04-13 18:07 44.65434 8.29905 11805 ft 232 kts 185°
2026-04-13 18:08 44.63891 8.29701 11799 ft 214 kts 185°
2026-04-13 18:08 44.62439 8.29510 11670 ft 208 kts 185°
2026-04-13 18:08 44.60992 8.29321 11417 ft 210 kts 185°
2026-04-13 18:08 44.59512 8.29127 11170 ft 218 kts 185°
2026-04-13 18:09 44.57989 8.28926 10920 ft 221 kts 185°
2026-04-13 18:09 44.56442 8.28723 10672 ft 225 kts 185°
2026-04-13 18:09 44.54885 8.28519 10430 ft 225 kts 185°
2026-04-13 18:09 44.53324 8.28314 10184 ft 226 kts 185°
2026-04-13 18:10 44.51754 8.28109 9941 ft 226 kts 185°
2026-04-13 18:10 44.50185 8.27903 9702 ft 227 kts 185°
2026-04-13 18:10 44.48617 8.27698 9438 ft 227 kts 185°
2026-04-13 18:10 44.47047 8.27492 9172 ft 226 kts 185°
2026-04-13 18:11 44.45479 8.27287 8907 ft 226 kts 185°
2026-04-13 18:11 44.43911 8.27082 8647 ft 226 kts 185°
2026-04-13 18:11 44.42345 8.26878 8387 ft 226 kts 185°
2026-04-13 18:11 44.40768 8.26672 8063 ft 229 kts 185°
2026-04-13 18:12 44.39717 8.26535 7845 ft 230 kts 185°
2026-04-13 18:12 44.38118 8.26327 7514 ft 231 kts 185°
2026-04-13 18:12 44.36516 8.26118 7188 ft 231 kts 185°
2026-04-13 18:12 44.34919 8.25910 6860 ft 228 kts 185°
2026-04-13 18:13 44.33360 8.25706 6531 ft 222 kts 185°
2026-04-13 18:13 44.31833 8.25508 6215 ft 219 kts 186°
2026-04-13 18:13 44.30324 8.25312 5872 ft 215 kts 186°
2026-04-13 18:13 44.28837 8.25118 5529 ft 213 kts 186°
2026-04-13 18:14 44.27359 8.24927 5204 ft 214 kts 187°
2026-04-13 18:14 44.25885 8.24738 4863 ft 211 kts 187°
2026-04-13 18:14 44.24427 8.24544 4546 ft 211 kts 187°
2026-04-13 18:14 44.22977 8.24357 4190 ft 207 kts 187°
2026-04-13 18:15 44.21542 8.24173 3864 ft 208 kts 187°
2026-04-13 18:15 44.20114 8.24001 3517 ft 203 kts 185°
2026-04-13 18:15 44.18694 8.23955 3082 ft 206 kts 180°
2026-04-13 18:15 44.17257 8.24068 2782 ft 206 kts 173°
2026-04-13 18:16 44.15847 8.24329 2539 ft 204 kts 170°
2026-04-13 18:16 44.14448 8.24676 2209 ft 203 kts 168°
2026-04-13 18:16 44.13053 8.25013 1846 ft 204 kts 173°
2026-04-13 18:16 44.11656 8.25236 1545 ft 202 kts 177°
2026-04-13 18:17 44.10249 8.25330 1336 ft 197 kts 182°
2026-04-13 18:17 44.08931 8.25295 1276 ft 178 kts 185°
2026-04-13 18:17 44.07786 8.25187 1186 ft 153 kts 190°
2026-04-13 18:17 44.06849 8.24864 1162 ft 128 kts 206°
2026-04-13 18:18 44.06082 8.24301 1007 ft 120 kts 223°
2026-04-13 18:18 44.05473 8.23578 953 ft 111 kts 238°
2026-04-13 18:18 44.04990 8.22709 990 ft 114 kts 252°
2026-04-13 18:18 44.04705 8.21704 1076 ft 109 kts 268°
2026-04-13 18:19 44.04667 8.20701 1051 ft 103 kts 285°
2026-04-13 18:19 44.04765 8.19709 1063 ft 105 kts 287°
2026-04-13 18:19 44.04826 8.18708 925 ft 103 kts 283°
2026-04-13 18:19 44.04853 8.17778 805 ft 92 kts 283°
2026-04-13 18:20 44.04879 8.16918 671 ft 87 kts 284°
2026-04-13 18:20 44.04922 8.16058 542 ft 93 kts 284°
2026-04-13 18:20 44.04948 8.15174 381 ft 90 kts 278°
2026-04-13 18:20 44.04986 8.14363 255 ft 80 kts 278°
2026-04-13 18:21 44.05013 8.13654 135 ft 68 kts 279°
2026-04-13 18:21 44.05035 8.13052 123 ft 58 kts 277°
2026-04-13 18:21 44.05060 8.12553 135 ft 42 kts 278°
2026-04-13 18:21 44.05078 8.12257 141 ft 29 kts 274°
2026-04-13 18:22 44.05088 8.12038 147 ft 20 kts 279°
2026-04-13 18:22 44.05045 8.11896 149 ft 17 kts 199°
2026-04-13 18:22 44.04935 8.11867 150 ft 16 kts 167°
2026-04-13 18:22 44.04848 8.11984 147 ft 21 kts 136°
2026-04-13 18:23 44.04720 8.12160 143 ft 30 kts 136°
2026-04-13 18:23 44.04596 8.12377 137 ft 27 kts 107°
2026-04-13 18:23 44.04548 8.12549 133 ft 9 kts 115°
2026-04-13 18:23 44.04513 8.12572 133 ft 4 kts 273°
2026-04-13 18:24 44.04514 8.12568 133 ft 0 kts 292°
2026-04-13 18:24 44.04514 8.12567 133 ft 0 kts 293°